Temp
80 84 75 77 78 77 77 77 77 76 77 77 77 77 76 76 76 76 77 77 77 77 77 78 77 76 76 75 74 73 73 73 73 73 74 76 78 77 77 75 78 82 77
84 83 73 76 77 77 77 77 76 76 77 77 77 76 77 76 76 76 76 76 76 77 77 76 76 75 75 73 73 72 72 72 71 71 73 75 76 77 77 75 75 79 76
82 82 79 75 77 77 76 76 76 76 77 77 77 77 77 77 77 76 75 75 76 76 76 75 74 73 72 72 72 72 71 71 70 71 73 83 82 77 77 76 75 76 76
82 81 81 73 75 76 76 76 75 76 77 78 77 77 77 76 76 76 75 75 76 76 74 73 72 72 71 71 71 71 70 70 69 71 81 82 83 77 77 76 75 75 76
81 81 81 72 75 76 75 75 75 75 76 77 77 77 76 75 75 74 74 75 75 75 73 72 71 71 71 70 70 69 69 68 69 75 79 80 83 77 76 76 76 74 73
80 80 76 73 75 75 75 75 75 75 76 77 76 76 75 74 74 73 72 73 73 72 72 72 71 70 69 69 68 68 67 67 71 77 78 77 80 75 75 74 74 73 73
79 79 79 72 74 75 75 75 75 75 76 76 76 75 74 72 72 72 72 72 72 71 71 71 70 69 68 68 67 66 65 65 74 75 75 76 76 73 74 74 74 73 73
79 77 78 70 70 72 73 74 74 74 75 75 75 74 73 72 72 71 71 71 71 71 71 70 68 68 67 66 65 64 62 64 72 72 72 75 70 72 72 72 72 72 72
79 76 77 78 75 67 71 71 72 73 73 74 74 73 71 71 71 70 70 70 70 70 69 69 68 67 66 65 64 62 61 62 73 71 73 75 68 71 71 71 71 72 72
76 76 76 77 78 78 77 67 68 70 70 71 71 71 68 68 68 68 67 69 70 69 68 67 67 66 65 63 61 59 59 63 70 70 72 70 68 70 70 70 70 71 71
72 73 75 75 76 77 77 72 65 67 67 68 68 65 64 72 72 70 68 67 69 68 67 66 65 64 62 60 59 57 61 68 69 69 70 62 66 68 69 69 69 70 70
71 71 73 74 74 75 75 75 74 72 70 72 73 71 72 72 72 70 65 64 66 65 65 65 62 58 60 67 65 61 67 66 67 67 67 61 64 67 68 68 69 69 70
75 74 71 72 73 73 73 74 75 74 71 73 72 71 70 69 67 68 69 68 68 62 67 65 61 65 63 66 66 66 64 66 68 67 62 59 64 66 67 68 69 69 69
75 74 73 72 71 72 73 72 73 73 72 71 70 68 67 66 66 67 67 67 65 65 64 62 63 61 61 61 62 62 62 65 66 65 62 57 62 66 68 68 68 69 69
73 73 72 71 71 71 70 72 72 71 70 71 69 67 67 66 64 65 66 65 65 63 63 62 61 61 60 60 61 61 61 61 61 64 65 56 60 65 67 69 69 69 69
73 73 73 71 70 71 69 70 71 71 71 70 68 67 65 66 64 64 64 63 63 62 62 62 62 61 60 59 58 59 59 61 60 61 64 63 58 63 66 67 68 69 68
73 73 72 71 70 69 68 69 70 69 69 68 67 66 64 64 64 63 62 61 62 61 60 60 59 60 60 59 58 58 58 58 60 59 61 63 63 58 63 66 67 68 66
75 73 73 70 68 69 68 69 68 69 68 67 67 66 63 62 64 62 61 61 61 59 60 59 59 58 59 59 58 58 58 57 57 58 59 61 62 63 58 58 60 62 63
78 75 72 70 68 68 68 69 68 67 66 67 67 65 63 61 62 62 61 61 59 58 58 59 58 59 58 58 57 57 58 57 57 58 57 58 57 59 59 52 54 56 58
77 75 74 70 68 67 67 67 67 65 64 66 65 64 63 61 60 60 60 59 57 56 57 57 56 57 59 57 56 55 55 56 57 57 56 56 55 55 56 55 57 55 55
73 71 71 69 67 67 64 63 63 62 61 63 64 62 62 61 59 58 59 58 56 55 55 56 56 53 53 55 53 52 52 53 54 55 56 55 53 54 54 55 55 55 56
70 69 67 67 67 65 65 64 65 64 63 63 62 61 61 59 59 57 57 56 55 55 55 54 53 52 55 54 56 55 49 49 52 53 54 53 53 53 52 52 52 52 53
64 63 63 64 64 64 63 63 62 61 62 60 59 58 57 58 56 56 57 56 54 55 54 53 53 53 51 52 55 58 51 53 50 50 50 52 51 52 52 51 50 50 51
57 58 59 60 61 61 62 60 58 58 57 59 59 58 56 55 56 56 56 55 54 54 54 52 53 54 56 51 50 50 51 56 53 46 49 50 51 50 50 50 50 49 50
54 54 56 57 58 58 59 59 57 56 60 62 60 56 54 53 54 55 55 55 54 53 53 52 51 52 54 56 54 49 49 51 51 56 48 46 48 50 50 50 50 49 49
53 53 53 55 54 55 56 57 56 55 56 56 55 54 53 53 52 53 52 53 53 52 52 51 51 50 51 53 55 52 52 52 51 53 53 50 49 48 49 48 48 48 48
MSLP
1015.06 1015.14 1016.17 1016.46 1016.78 1017.04 1017.31 1017.57 1017.81 1017.94 1018.14 1018.34 1018.45 1018.51 1018.64 1018.72 1018.79 1018.84 1018.85 1018.96 1018.85 1018.97 1019.12 1019.16 1019.16 1019.37 1019.44 1019.45 1019.43 1019.48 1019.36 1019.31 1019.11 1018.88 1018.76 1018.47 1018.50 1018.49 1018.48 1018.46 1018.10 1018.05 1018.33
1014.37 1015.11 1015.99 1016.25 1016.63 1016.99 1017.25 1017.53 1017.78 1017.99 1018.12 1018.29 1018.40 1018.56 1018.69 1018.86 1018.97 1019.02 1019.02 1019.04 1019.04 1019.17 1019.23 1019.34 1019.53 1019.49 1019.64 1019.76 1019.65 1019.73 1019.56 1019.53 1019.43 1019.24 1018.92 1018.76 1018.74 1018.78 1018.82 1018.73 1018.58 1018.58 1018.51
1014.58 1015.08 1015.93 1016.24 1016.58 1016.92 1017.19 1017.49 1017.77 1017.92 1018.08 1018.25 1018.42 1018.62 1018.82 1019.03 1019.02 1019.16 1019.32 1019.33 1019.41 1019.38 1019.47 1019.58 1019.89 1019.97 1020.05 1020.08 1019.91 1019.81 1019.81 1019.61 1019.53 1019.46 1018.96 1018.39 1018.66 1018.86 1018.97 1018.94 1018.95 1018.85 1018.79
1014.72 1015.14 1015.52 1016.25 1016.46 1016.86 1017.18 1017.36 1017.64 1017.89 1018.07 1018.21 1018.38 1018.57 1018.82 1019.04 1019.29 1019.46 1019.57 1019.62 1019.54 1019.53 1019.80 1020.05 1020.08 1020.25 1020.41 1020.35 1020.17 1020.09 1020.05 1019.89 1019.69 1019.49 1018.86 1018.73 1018.64 1019.14 1019.04 1019.10 1019.15 1019.11 1018.99
1014.97 1015.35 1015.59 1016.27 1016.51 1016.74 1017.09 1017.33 1017.53 1017.78 1017.99 1018.14 1018.29 1018.48 1018.75 1019.05 1019.39 1019.65 1019.77 1019.73 1019.75 1019.81 1020.12 1020.34 1020.33 1020.46 1020.59 1020.59 1020.50 1020.37 1020.41 1020.27 1020.02 1019.45 1019.22 1019.17 1018.68 1019.35 1019.16 1019.19 1019.21 1019.35 1019.26
1015.25 1015.61 1015.87 1016.37 1016.58 1016.76 1017.01 1017.32 1017.53 1017.70 1017.88 1018.03 1018.32 1018.64 1018.97 1019.32 1019.57 1019.83 1019.92 1019.85 1019.94 1020.22 1020.37 1020.49 1020.56 1020.63 1020.71 1020.72 1020.71 1020.61 1020.70 1020.41 1020.08 1019.70 1019.49 1019.58 1019.10 1019.60 1019.58 1019.55 1019.47 1019.57 1019.43
1014.95 1015.44 1015.92 1016.44 1016.57 1016.78 1016.98 1017.25 1017.50 1017.64 1017.85 1017.99 1018.40 1018.83 1019.14 1019.48 1019.84 1020.08 1020.05 1020.10 1020.21 1020.40 1020.53 1020.58 1020.79 1020.88 1020.89 1020.83 1020.98 1020.79 1020.84 1020.71 1020.29 1020.11 1020.11 1019.93 1019.98 1020.03 1019.95 1019.90 1019.82 1019.76 1019.66
1014.84 1015.29 1015.65 1016.29 1016.59 1016.76 1017.03 1017.29 1017.48 1017.69 1017.85 1017.90 1018.57 1018.96 1019.22 1019.51 1019.87 1020.08 1020.13 1020.26 1020.34 1020.50 1020.65 1020.82 1020.97 1021.14 1021.19 1021.21 1021.20 1021.14 1021.13 1020.93 1020.57 1020.56 1020.53 1020.38 1020.60 1020.34 1020.27 1020.30 1020.26 1019.98 1019.99
1014.98 1015.56 1015.68 1015.85 1016.32 1016.73 1016.88 1017.23 1017.59 1017.82 1018.02 1018.21 1018.71 1018.95 1019.24 1019.59 1019.88 1020.05 1020.15 1020.29 1020.36 1020.52 1020.78 1021.03 1021.14 1021.29 1021.40 1021.50 1021.49 1021.56 1021.43 1021.33 1020.79 1020.87 1020.73 1020.58 1020.94 1020.59 1020.48 1020.36 1020.47 1020.19 1020.13
1015.09 1015.34 1015.49 1015.65 1015.90 1016.19 1016.58 1017.16 1017.38 1017.67 1018.00 1018.25 1018.75 1019.06 1019.41 1019.77 1020.06 1020.22 1020.40 1020.43 1020.45 1020.66 1020.86 1021.10 1021.20 1021.38 1021.59 1021.60 1021.72 1021.75 1021.70 1021.58 1021.17 1021.13 1020.94 1021.23 1021.11 1020.68 1020.61 1020.66 1020.63 1020.45 1020.34
1014.95 1015.09 1015.22 1015.53 1015.67 1015.81 1016.19 1016.80 1017.35 1017.62 1017.95 1018.23 1018.69 1019.12 1019.57 1019.72 1020.01 1020.25 1020.39 1020.53 1020.63 1020.96 1021.08 1021.26 1021.39 1021.59 1021.82 1021.92 1021.96 1022.02 1021.68 1021.48 1021.41 1021.40 1021.20 1021.77 1021.33 1020.91 1020.84 1020.88 1020.81 1020.57 1020.48
1014.02 1014.43 1014.80 1015.07 1015.37 1015.67 1015.92 1016.30 1016.69 1017.13 1017.56 1017.84 1018.23 1018.76 1019.13 1019.47 1019.73 1020.10 1020.48 1020.74 1020.90 1021.18 1021.37 1021.51 1021.80 1022.05 1021.91 1021.57 1021.77 1021.90 1021.58 1021.63 1021.57 1021.73 1021.78 1022.02 1021.64 1021.32 1021.08 1021.06 1020.95 1020.76 1020.63
1013.13 1013.71 1014.09 1014.49 1014.77 1015.24 1015.66 1015.99 1016.03 1016.25 1016.93 1017.17 1017.68 1018.25 1018.75 1019.28 1019.79 1020.09 1020.19 1020.63 1020.94 1021.37 1021.33 1021.69 1022.10 1021.77 1021.80 1021.68 1021.82 1021.76 1021.88 1021.76 1021.83 1021.98 1022.20 1022.18 1021.76 1021.45 1021.31 1021.19 1020.99 1020.92 1020.96
1012.37 1012.76 1013.59 1014.01 1014.37 1014.64 1014.99 1015.38 1015.66 1015.97 1016.26 1016.63 1017.13 1017.79 1018.29 1018.85 1019.37 1019.64 1019.91 1020.27 1020.78 1021.11 1021.36 1021.72 1021.92 1022.12 1022.20 1022.31 1022.20 1022.13 1022.15 1021.88 1021.91 1022.03 1022.33 1022.35 1021.92 1021.53 1021.30 1021.19 1021.23 1021.06 1021.10
1011.69 1012.09 1012.63 1013.34 1013.58 1013.96 1014.47 1014.49 1014.72 1015.17 1015.77 1016.18 1016.75 1017.39 1017.76 1018.17 1018.74 1019.25 1019.60 1020.06 1020.44 1020.97 1021.27 1021.57 1021.79 1022.05 1022.30 1022.46 1022.48 1022.51 1022.52 1022.46 1022.43 1022.33 1022.29 1022.59 1022.09 1021.63 1021.26 1021.18 1021.24 1021.11 1021.14
1010.99 1011.20 1011.91 1012.40 1012.93 1013.16 1013.42 1013.75 1013.99 1014.44 1014.72 1015.33 1015.91 1016.47 1017.05 1017.40 1018.00 1018.57 1019.12 1019.67 1020.21 1020.75 1021.08 1021.32 1021.59 1021.85 1022.07 1022.38 1022.61 1022.71 1022.76 1022.83 1022.74 1022.70 1022.50 1022.52 1022.51 1021.96 1021.56 1021.39 1021.33 1021.14 1021.27
1010.02 1010.42 1010.70 1011.24 1011.83 1012.25 1012.57 1012.86 1013.13 1013.53 1014.12 1014.60 1015.06 1015.68 1016.38 1016.85 1017.30 1017.86 1018.48 1019.14 1019.72 1020.42 1020.92 1021.27 1021.69 1021.99 1022.12 1022.29 1022.40 1022.66 1022.74 1023.00 1022.92 1022.92 1022.78 1022.59 1022.42 1022.42 1021.94 1021.77 1021.55 1021.33 1021.66
1009.04 1009.12 1009.61 1010.31 1010.76 1011.29 1011.66 1012.15 1012.60 1012.94 1013.35 1013.87 1014.57 1015.23 1015.85 1016.48 1016.93 1017.51 1018.05 1018.62 1019.25 1019.93 1020.33 1020.71 1021.11 1021.57 1021.80 1022.10 1022.39 1022.61 1022.73 1022.89 1023.05 1023.10 1022.91 1022.82 1022.70 1022.59 1022.93 1022.99 1022.85 1022.49 1022.58
1007.87 1008.21 1008.61 1009.27 1009.85 1010.28 1010.89 1011.54 1012.08 1012.70 1013.11 1013.40 1013.81 1014.40 1015.27 1015.95 1016.56 1017.07 1017.56 1018.10 1019.00 1019.56 1019.96 1020.23 1020.76 1021.11 1021.62 1022.07 1022.38 1022.62 1022.74 1022.84 1023.07 1023.04 1022.99 1023.07 1023.25 1023.19 1023.32 1023.83 1023.80 1023.37 1023.29
1007.28 1007.47 1007.85 1008.57 1009.28 1010.06 1010.78 1011.26 1011.77 1012.14 1012.51 1012.96 1013.33 1013.72 1014.36 1015.28 1016.12 1016.70 1017.24 1017.89 1018.67 1019.10 1019.53 1020.00 1020.44 1020.99 1021.18 1021.59 1022.17 1022.51 1022.79 1023.04 1023.19 1023.02 1023.09 1023.37 1023.63 1023.65 1023.72 1023.83 1023.84 1023.87 1023.69
1006.96 1007.44 1007.83 1008.18 1008.74 1009.37 1010.05 1010.52 1011.00 1011.13 1012.05 1012.42 1012.74 1013.42 1014.02 1014.57 1015.24 1015.85 1016.35 1017.24 1018.25 1018.47 1018.77 1019.43 1019.98 1020.59 1021.17 1021.52 1022.01 1022.63 1022.90 1023.09 1023.13 1023.06 1023.14 1023.30 1023.69 1023.69 1023.85 1023.96 1023.97 1023.95 1023.81
1007.45 1007.64 1008.34 1008.42 1008.90 1009.51 1009.57 1009.93 1010.62 1011.24 1011.76 1012.33 1012.86 1013.33 1013.77 1014.22 1014.72 1015.45 1015.92 1016.38 1017.02 1017.74 1018.50 1019.00 1019.39 1019.85 1020.28 1020.90 1020.48 1021.05 1021.96 1022.90 1022.96 1023.14 1023.22 1023.29 1023.47 1023.76 1023.95 1023.99 1024.01 1024.13 1024.18
1008.24 1008.41 1008.58 1008.66 1008.92 1009.29 1010.16 1010.73 1011.12 1011.43 1011.66 1012.20 1012.76 1013.29 1013.91 1014.49 1014.89 1014.88 1015.24 1015.76 1016.42 1016.90 1017.10 1017.70 1018.40 1018.65 1019.20 1020.24 1020.09 1019.87 1020.57 1020.41 1021.76 1022.66 1022.86 1023.16 1023.47 1023.53 1023.73 1023.92 1024.12 1024.15 1024.16
1009.24 1009.66 1009.33 1009.19 1009.24 1009.61 1010.05 1010.49 1010.96 1010.93 1010.66 1011.13 1012.04 1012.82 1013.39 1014.06 1014.50 1014.95 1015.18 1015.50 1015.60 1016.01 1016.76 1017.45 1017.82 1017.86 1018.06 1018.54 1019.89 1019.96 1019.81 1019.51 1019.77 1021.33 1022.24 1022.63 1022.93 1023.23 1023.48 1023.78 1024.05 1024.24 1024.25
1010.59 1010.63 1010.22 1010.04 1010.13 1010.35 1010.67 1010.86 1011.00 1011.08 1011.18 1011.37 1011.45 1011.60 1012.44 1013.41 1013.89 1014.37 1014.97 1015.33 1015.60 1015.85 1015.86 1015.97 1017.06 1017.88 1017.97 1017.66 1017.86 1018.67 1019.28 1019.24 1019.34 1019.07 1020.15 1021.43 1022.32 1022.48 1022.88 1023.41 1023.74 1023.97 1024.16
1012.32 1012.25 1011.80 1011.59 1011.45 1011.16 1011.00 1011.16 1011.44 1011.46 1011.40 1011.26 1011.46 1011.78 1012.47 1013.01 1013.28 1013.43 1013.55 1014.20 1015.17 1015.62 1015.82 1015.98 1016.09 1016.33 1016.95 1017.61 1017.67 1017.92 1017.68 1017.87 1017.93 1018.12 1018.76 1019.95 1020.51 1021.41 1022.23 1022.82 1023.31 1023.55 1023.79
Wind_Speed
12 14 16 15 16 15 14 13 12 10 11 10 9 9 8 9 10 9 7 8 12 11 11 10 11 11 11 10 9 9 10 10 10 11 11 14 15 14 13 12 10 11 13
15 16 15 15 16 15 13 12 12 11 11 11 11 9 10 9 9 10 10 10 12 12 10 10 9 9 9 8 9 7 8 9 9 10 7 9 11 12 12 12 11 11 12
15 16 17 13 16 15 14 11 11 11 12 12 11 11 9 6 5 8 8 9 9 10 10 9 5 5 5 6 7 6 6 8 8 6 4 5 8 9 11 12 11 12 12
14 15 17 12 14 15 14 13 12 11 11 10 11 11 11 9 6 5 6 5 6 6 8 7 7 6 5 5 6 6 6 7 7 2 3 5 5 8 8 10 11 11 10
13 13 13 12 13 14 15 14 13 12 12 11 11 10 8 7 6 5 3 5 4 5 6 5 6 6 6 6 6 7 6 7 5 2 5 4 3 9 9 8 9 10 10
13 12 11 12 13 14 15 14 14 14 13 12 10 8 8 6 6 5 5 6 6 7 7 6 7 7 6 7 7 8 7 7 3 5 5 5 6 7 9 12 13 12 11
15 13 12 9 11 12 13 14 14 13 11 12 9 7 9 9 7 7 7 7 8 7 7 8 8 7 7 8 7 8 8 8 4 5 5 5 8 7 7 6 7 8 9
15 14 14 11 8 10 10 8 10 10 10 10 11 10 10 10 10 9 9 9 8 7 7 7 7 7 8 8 8 9 9 5 4 6 5 4 7 7 7 6 6 7 8
13 13 13 14 13 7 10 10 9 8 7 10 11 11 10 11 11 11 10 10 10 10 9 9 8 8 8 8 9 9 10 7 6 5 4 4 8 6 6 6 5 6 6
12 13 13 13 14 14 14 8 9 10 10 12 13 12 9 8 8 8 7 9 10 10 10 9 9 9 8 9 9 8 7 4 6 5 4 5 6 6 6 6 5 5 6
12 14 14 14 14 15 14 12 9 10 9 9 9 10 9 9 10 10 8 9 11 9 9 9 9 9 9 9 8 7 0 4 4 4 4 8 6 5 5 4 4 5 6
17 17 15 15 15 15 12 14 15 12 8 12 13 13 10 10 9 8 8 7 9 9 9 9 8 7 4 3 4 3 3 4 4 3 4 6 5 3 3 3 3 4 7
16 15 18 17 16 16 13 10 8 8 9 10 15 13 12 9 8 8 7 7 7 8 6 7 6 3 3 2 3 3 3 3 2 2 5 5 3 0 2 3 4 6 6
16 18 17 18 16 17 11 11 11 10 10 10 12 15 11 8 9 9 7 9 7 7 6 5 3 3 4 4 4 4 3 2 2 2 4 6 3 1 3 5 6 7 8
17 17 18 18 18 16 16 13 13 12 11 12 12 14 11 11 10 10 9 9 8 7 6 6 5 4 4 4 3 3 3 3 3 2 2 4 5 1 5 7 7 8 9
16 17 17 20 19 18 17 18 13 13 14 13 12 13 16 12 11 11 10 9 8 7 6 6 6 5 4 4 4 3 2 2 3 3 2 3 8 2 4 6 7 8 13
16 16 19 20 21 21 21 18 14 13 13 13 12 16 17 14 14 13 10 10 9 7 8 7 6 5 5 4 4 3 3 3 3 4 4 3 5 11 8 6 8 9 11
15 18 18 14 20 22 20 16 13 13 13 13 12 12 17 17 16 14 11 10 10 9 8 7 7 6 5 5 4 4 4 4 4 5 4 4 4 5 9 12 11 10 8
17 17 17 18 20 21 20 15 15 16 13 12 13 13 17 17 17 13 11 11 12 9 8 8 8 7 6 6 4 3 3 4 4 4 6 5 5 4 4 7 8 10 6
15 14 14 13 17 17 13 13 12 12 12 13 13 13 18 14 17 14 11 11 12 10 9 9 10 7 6 6 5 4 3 3 3 4 5 5 5 5 4 3 2 4 5
11 11 12 13 14 13 12 12 12 13 12 12 13 16 17 15 18 16 11 13 12 12 12 13 9 12 6 8 7 4 3 4 5 5 5 5 5 4 3 3 2 2 4
10 9 9 10 10 11 10 10 10 10 11 11 11 13 15 17 17 15 14 13 15 11 14 14 13 9 6 11 6 5 5 4 4 5 5 5 6 4 5 4 4 4 4
14 13 10 8 8 9 10 7 8 4 6 7 10 10 11 15 15 17 17 13 14 12 12 15 14 14 10 10 9 3 4 5 7 5 7 6 6 4 4 4 5 5 6
17 13 13 9 5 4 8 8 12 10 11 9 9 10 11 15 16 17 15 15 15 12 13 12 11 11 11 10 7 6 3 1 5 5 6 8 7 6 5 4 5 6 7
21 18 16 13 8 3 4 7 7 10 9 7 6 11 14 13 16 16 16 16 14 11 13 15 14 13 9 9 8 6 6 4 3 3 5 7 8 8 6 5 5 6 7
20 19 18 16 13 8 4 5 7 10 10 7 8 7 8 9 11 16 16 15 14 13 14 13 14 17 13 10 9 8 8 7 8 5 3 6 8 8 8 6 7 6 7
Wind_Direction
193 170 170 178 173 170 166 160 153 150 149 141 139 131 123 119 101 83 120 124 116 106 96 85 84 84 79 74 75 58 56 52 49 52 56 60 76 73 68 52 41 60 49
164 174 174 178 174 173 168 163 156 155 155 152 140 125 121 117 111 89 87 106 112 110 93 84 72 68 69 75 73 64 64 60 52 45 31 94 69 76 70 66 51 63 57
168 171 176 175 174 172 169 167 168 167 164 162 152 145 147 133 124 107 98 106 112 103 99 89 98 84 76 69 72 73 74 72 60 50 24 75 71 68 73 68 63 59 60
170 173 179 176 172 172 172 172 177 184 181 179 163 154 148 142 146 159 144 135 129 98 97 110 107 99 87 73 61 60 65 78 73 20 79 68 86 62 87 76 68 59 62
174 179 181 171 180 177 176 179 181 191 199 183 166 144 131 131 168 173 184 181 161 121 115 111 107 110 97 80 70 62 57 59 60 88 75 58 72 58 85 82 86 76 54
178 185 167 186 188 183 179 187 190 196 203 154 135 145 139 154 172 180 186 181 153 138 133 127 120 106 96 83 74 72 61 53 334 60 59 61 49 71 61 73 76 65 66
178 184 183 196 196 191 188 195 192 191 181 145 142 177 168 166 177 186 181 160 152 146 143 137 124 116 107 92 84 78 69 58 64 72 67 43 59 59 66 69 80 75 62
184 183 188 188 195 174 169 169 166 170 168 146 188 207 182 174 187 190 181 170 159 156 148 134 125 118 109 99 90 83 73 58 88 69 65 58 15 53 58 57 60 72 76
191 191 193 194 195 203 182 174 174 178 184 163 189 198 185 186 189 189 183 179 169 162 149 145 133 121 108 99 89 80 70 46 78 69 60 50 12 42 43 45 47 61 65
195 201 201 201 199 201 197 200 211 202 188 181 204 204 166 170 187 189 177 185 172 158 152 145 133 123 112 99 90 79 72 62 61 63 52 35 7 39 42 42 49 55 65
206 208 205 206 205 205 202 201 209 195 202 183 177 156 156 195 192 181 189 170 170 164 154 147 133 123 109 94 84 86 60 62 58 43 41 3 6 32 44 42 52 67 67
208 205 205 206 208 207 204 202 205 199 198 196 195 185 191 196 190 192 180 185 156 160 158 150 137 130 181 130 115 135 67 68 60 43 52 359 351 4 56 73 76 87 89
216 207 206 204 204 204 203 206 204 202 197 198 195 189 189 186 179 186 178 176 172 169 169 160 155 175 130 124 104 90 89 82 67 58 53 348 344 54 133 141 121 97 99
218 214 207 208 204 204 203 204 204 203 196 194 195 188 182 184 187 187 187 182 181 183 171 174 169 143 133 117 112 109 98 87 68 61 72 340 329 181 147 123 128 121 113
226 219 212 205 206 204 205 204 205 204 201 200 194 191 189 190 188 185 188 185 185 179 181 176 163 158 145 129 117 123 115 105 115 130 110 335 323 180 145 141 130 123 119
231 225 213 211 210 205 206 209 205 204 201 200 197 195 195 191 189 188 186 187 184 186 177 176 172 166 160 152 141 132 111 117 123 139 128 109 6 351 123 125 129 137 112
232 228 219 213 208 210 210 210 206 205 203 202 201 197 194 193 192 189 186 185 185 182 175 168 165 167 167 157 146 148 144 147 144 144 144 143 109 44 49 107 90 108 101
235 224 222 212 209 211 212 211 207 207 204 204 203 200 198 196 193 191 187 188 179 177 179 177 171 173 178 178 171 172 166 157 152 159 146 145 119 110 65 51 63 74 85
249 239 229 216 216 214 215 212 210 212 213 210 206 203 199 197 196 193 193 187 177 180 184 179 176 182 178 174 163 146 141 145 136 154 140 136 116 111 106 62 48 42 45
261 247 240 225 220 218 216 214 214 215 215 215 212 208 198 196 194 196 195 187 182 181 183 183 178 181 182 160 140 127 132 157 165 157 145 141 130 127 130 135 132 73 42
278 266 248 231 220 206 207 208 211 216 214 218 214 211 206 199 195 196 193 185 188 190 187 183 175 170 166 163 139 134 122 168 190 183 173 161 158 148 147 150 153 143 110
329 324 296 260 240 223 216 210 214 220 229 230 222 223 215 205 197 197 193 189 188 187 190 189 180 174 174 184 183 157 174 176 200 203 187 183 176 168 164 162 148 147 158
14 2 337 294 256 223 226 224 218 245 233 225 228 226 220 217 207 199 198 193 190 193 190 189 189 182 177 191 213 224 163 208 157 178 198 192 186 187 179 171 168 162 161
32 19 9 357 315 226 214 217 220 230 221 217 225 223 216 215 213 212 207 201 194 192 196 197 195 194 185 177 192 222 251 126 186 170 205 203 200 204 199 193 183 177 170
27 20 19 22 25 360 256 237 229 240 260 267 246 210 205 208 215 214 214 209 206 203 201 189 189 201 206 194 191 166 196 188 229 178 166 185 210 212 202 204 189 182 181
29 24 23 23 24 16 341 266 261 267 264 251 233 218 215 217 216 215 207 206 210 210 208 203 197 194 196 211 205 202 184 177 189 176 159 175 197 190 195 188 195 191 184